Year,Month,Day,Hour,Minute,Value (Times are PST for temperature in C)
2016,02,18,00,00,7.70
2016,02,18,00,01,7.70
2016,02,18,00,02,7.70
2016,02,18,00,03,7.70
2016,02,18,00,04,7.70
2016,02,18,00,05,7.70
2016,02,18,00,06,7.70
2016,02,18,00,07,7.70
2016,02,18,00,08,7.70
2016,02,18,00,09,7.70
2016,02,18,00,10,7.70
2016,02,18,00,11,7.70
2016,02,18,00,12,7.60
2016,02,18,00,13,7.60
2016,02,18,00,14,7.60
2016,02,18,00,15,7.60
2016,02,18,00,16,7.60
2016,02,18,00,17,7.60
2016,02,18,00,18,7.60
2016,02,18,00,19,7.60
2016,02,18,00,20,7.60
2016,02,18,00,21,7.60
2016,02,18,00,22,7.60
2016,02,18,00,23,7.60
2016,02,18,00,24,7.60
2016,02,18,00,25,7.60
2016,02,18,00,26,7.60
2016,02,18,00,27,7.60
2016,02,18,00,28,7.60
2016,02,18,00,29,7.60
2016,02,18,00,30,7.60
2016,02,18,00,31,7.60
2016,02,18,00,32,7.60
2016,02,18,00,33,7.60
2016,02,18,00,34,7.60
2016,02,18,00,35,7.60
2016,02,18,00,36,7.60
2016,02,18,00,37,7.60
2016,02,18,00,38,7.60
2016,02,18,00,39,7.60
2016,02,18,00,40,7.60
2016,02,18,00,41,7.60
2016,02,18,00,42,7.60
2016,02,18,00,43,7.60
2016,02,18,00,44,7.60
2016,02,18,00,45,7.60
2016,02,18,00,46,7.50
2016,02,18,00,47,7.50
2016,02,18,00,48,7.50
2016,02,18,00,49,7.50
2016,02,18,00,50,7.50
2016,02,18,00,51,7.50
2016,02,18,00,52,7.60
2016,02,18,00,53,7.60
2016,02,18,00,54,7.60
2016,02,18,00,55,7.60
2016,02,18,00,56,7.60
2016,02,18,00,57,7.60
2016,02,18,00,58,7.60
2016,02,18,00,59,7.60
2016,02,18,01,00,7.60
2016,02,18,01,01,7.60
2016,02,18,01,02,7.60
2016,02,18,01,03,7.60
2016,02,18,01,04,7.60
2016,02,18,01,05,7.60
2016,02,18,01,06,7.60
2016,02,18,01,07,7.60
2016,02,18,01,08,7.60
2016,02,18,01,09,7.60
2016,02,18,01,10,7.60
2016,02,18,01,11,7.60
2016,02,18,01,12,7.60
2016,02,18,01,13,7.60
2016,02,18,01,14,7.60
2016,02,18,01,15,7.60
2016,02,18,01,16,7.60
2016,02,18,01,17,7.60
2016,02,18,01,18,7.60
2016,02,18,01,19,7.60
2016,02,18,01,20,7.60
2016,02,18,01,21,7.60
2016,02,18,01,22,7.60
2016,02,18,01,23,7.60
2016,02,18,01,24,7.60
2016,02,18,01,25,7.60
2016,02,18,01,26,7.50
2016,02,18,01,27,7.50
2016,02,18,01,28,7.50
2016,02,18,01,29,7.50
2016,02,18,01,30,7.50
2016,02,18,01,31,7.50
2016,02,18,01,32,7.50
2016,02,18,01,33,7.40
2016,02,18,01,34,7.40
2016,02,18,01,35,7.40
2016,02,18,01,36,7.40
2016,02,18,01,37,7.40
2016,02,18,01,38,7.40
2016,02,18,01,39,7.40
2016,02,18,01,40,7.40
2016,02,18,01,41,7.30
2016,02,18,01,42,7.30
2016,02,18,01,43,7.30
2016,02,18,01,44,7.30
2016,02,18,01,45,7.30
2016,02,18,01,46,7.30
2016,02,18,01,47,7.20
2016,02,18,01,48,7.20
2016,02,18,01,49,7.20
2016,02,18,01,50,7.20
2016,02,18,01,51,7.20
2016,02,18,01,52,7.20
2016,02,18,01,53,7.20
2016,02,18,01,54,7.20
2016,02,18,01,55,7.20
2016,02,18,01,56,7.20
2016,02,18,01,57,7.20
2016,02,18,01,58,7.20
2016,02,18,01,59,7.20
2016,02,18,02,00,7.20
2016,02,18,02,01,7.20
2016,02,18,02,02,7.20
2016,02,18,02,03,7.20
2016,02,18,02,04,7.20
2016,02,18,02,05,7.10
2016,02,18,02,06,7.10
2016,02,18,02,07,7.10
2016,02,18,02,08,7.10
2016,02,18,02,09,7.10
2016,02,18,02,10,7.10
2016,02,18,02,11,7.10
2016,02,18,02,12,7.10
2016,02,18,02,13,7.10
2016,02,18,02,14,7.10
2016,02,18,02,15,7.10
2016,02,18,02,16,7.00
2016,02,18,02,17,7.00
2016,02,18,02,18,7.00
2016,02,18,02,19,7.00
2016,02,18,02,20,7.00
2016,02,18,02,21,6.90
2016,02,18,02,22,6.90
2016,02,18,02,23,6.90
2016,02,18,02,24,6.90
2016,02,18,02,25,6.90
2016,02,18,02,26,6.90
2016,02,18,02,27,6.90
2016,02,18,02,28,6.90
2016,02,18,02,29,6.90
2016,02,18,02,30,6.90
2016,02,18,02,31,6.80
2016,02,18,02,32,6.80
2016,02,18,02,33,6.80
2016,02,18,02,34,6.80
2016,02,18,02,35,6.80
2016,02,18,02,36,6.80
2016,02,18,02,37,6.80
2016,02,18,02,38,6.80
2016,02,18,02,39,6.80
2016,02,18,02,40,6.80
2016,02,18,02,41,6.80
2016,02,18,02,42,6.80
2016,02,18,02,43,6.80
2016,02,18,02,44,6.80
2016,02,18,02,45,6.80
2016,02,18,02,46,6.80
2016,02,18,02,47,6.80
2016,02,18,02,48,6.80
2016,02,18,02,49,6.80
2016,02,18,02,50,6.80
2016,02,18,02,51,6.80
2016,02,18,02,52,6.80
2016,02,18,02,53,6.80
2016,02,18,02,54,6.80
2016,02,18,02,55,6.80
2016,02,18,02,56,6.80
2016,02,18,02,57,6.80
2016,02,18,02,58,6.80
2016,02,18,02,59,6.80
2016,02,18,03,00,6.80
2016,02,18,03,01,6.80
2016,02,18,03,02,6.70
2016,02,18,03,03,6.70
2016,02,18,03,04,6.70
2016,02,18,03,05,6.70
2016,02,18,03,06,6.70
2016,02,18,03,07,6.70
2016,02,18,03,08,6.70
2016,02,18,03,09,6.70
2016,02,18,03,10,6.70
2016,02,18,03,11,6.70
2016,02,18,03,12,6.70
2016,02,18,03,13,6.70
2016,02,18,03,14,6.60
2016,02,18,03,15,6.60
2016,02,18,03,16,6.60
2016,02,18,03,17,6.60
2016,02,18,03,18,6.60
2016,02,18,03,19,6.60
2016,02,18,03,20,6.60
2016,02,18,03,21,6.60
2016,02,18,03,22,6.60
2016,02,18,03,23,6.60
2016,02,18,03,24,6.50
2016,02,18,03,25,6.60
2016,02,18,03,26,6.60
2016,02,18,03,27,6.60
2016,02,18,03,28,6.60
2016,02,18,03,29,6.50
2016,02,18,03,30,6.50
2016,02,18,03,31,6.50
2016,02,18,03,32,6.50
2016,02,18,03,33,6.50
2016,02,18,03,34,6.50
2016,02,18,03,35,6.50
2016,02,18,03,36,6.50
2016,02,18,03,37,6.40
2016,02,18,03,38,6.50
2016,02,18,03,39,6.40
2016,02,18,03,40,6.40
2016,02,18,03,41,6.40
2016,02,18,03,42,6.40
2016,02,18,03,43,6.40
2016,02,18,03,44,6.40
2016,02,18,03,45,6.30
2016,02,18,03,46,6.30
2016,02,18,03,47,6.30
2016,02,18,03,48,6.30
2016,02,18,03,49,6.30
2016,02,18,03,50,6.30
2016,02,18,03,51,6.30
2016,02,18,03,52,6.30
2016,02,18,03,53,6.20
2016,02,18,03,54,6.20
2016,02,18,03,55,6.20
2016,02,18,03,56,6.20
2016,02,18,03,57,6.20
2016,02,18,03,58,6.20
2016,02,18,03,59,6.10
2016,02,18,04,00,6.10
2016,02,18,04,01,6.10
2016,02,18,04,02,6.10
2016,02,18,04,03,6.10
2016,02,18,04,04,6.10
2016,02,18,04,05,6.10
2016,02,18,04,06,6.10
2016,02,18,04,07,6.10
2016,02,18,04,08,6.00
2016,02,18,04,09,6.00
2016,02,18,04,10,6.00
2016,02,18,04,11,6.00
2016,02,18,04,12,6.00
2016,02,18,04,13,6.00
2016,02,18,04,14,5.90
2016,02,18,04,15,5.90
2016,02,18,04,16,5.90
2016,02,18,04,17,5.90
2016,02,18,04,18,5.90
2016,02,18,04,19,5.90
2016,02,18,04,20,5.90
2016,02,18,04,21,5.90
2016,02,18,04,22,5.90
2016,02,18,04,23,5.90
2016,02,18,04,24,5.90
2016,02,18,04,25,5.90
2016,02,18,04,26,5.80
2016,02,18,04,27,5.80
2016,02,18,04,28,5.80
2016,02,18,04,29,5.80
2016,02,18,04,30,5.80
2016,02,18,04,31,5.80
2016,02,18,04,32,5.80
2016,02,18,04,33,5.80
2016,02,18,04,34,5.80
2016,02,18,04,35,5.90
2016,02,18,04,36,5.90
2016,02,18,04,37,5.90
2016,02,18,04,38,5.90
2016,02,18,04,39,5.90
2016,02,18,04,40,5.90
2016,02,18,04,41,6.00
2016,02,18,04,42,5.90
2016,02,18,04,43,5.90
2016,02,18,04,44,5.90
2016,02,18,04,45,5.90
2016,02,18,04,46,5.90
2016,02,18,04,47,5.90
2016,02,18,04,48,5.90
2016,02,18,04,49,5.90
2016,02,18,04,50,5.90
2016,02,18,04,51,5.80
2016,02,18,04,52,5.80
2016,02,18,04,53,5.80
2016,02,18,04,54,5.80
2016,02,18,04,55,5.80
2016,02,18,04,56,5.80
2016,02,18,04,57,5.70
2016,02,18,04,58,5.70
2016,02,18,04,59,5.70
2016,02,18,05,00,5.70
2016,02,18,05,01,5.70
2016,02,18,05,02,5.60
2016,02,18,05,03,5.60
2016,02,18,05,04,5.60
2016,02,18,05,05,5.60
2016,02,18,05,06,5.50
2016,02,18,05,07,5.50
2016,02,18,05,08,5.50
2016,02,18,05,09,5.50
2016,02,18,05,10,5.40
2016,02,18,05,11,5.40
2016,02,18,05,12,5.40
2016,02,18,05,13,5.40
2016,02,18,05,14,5.40
2016,02,18,05,15,5.40
2016,02,18,05,16,5.40
2016,02,18,05,17,5.40
2016,02,18,05,18,5.40
2016,02,18,05,19,5.40
2016,02,18,05,20,5.40
2016,02,18,05,21,5.40
2016,02,18,05,22,5.50
2016,02,18,05,23,5.50
2016,02,18,05,24,5.50
2016,02,18,05,25,5.50
2016,02,18,05,26,5.60
2016,02,18,05,27,5.60
2016,02,18,05,28,5.60
2016,02,18,05,29,5.60
2016,02,18,05,30,5.60
2016,02,18,05,31,5.60
2016,02,18,05,32,5.60
2016,02,18,05,33,5.60
2016,02,18,05,34,5.60
2016,02,18,05,35,5.60
2016,02,18,05,36,5.60
2016,02,18,05,37,5.60
2016,02,18,05,38,5.60
2016,02,18,05,39,5.60
2016,02,18,05,40,5.60
2016,02,18,05,41,5.60
2016,02,18,05,42,5.60
2016,02,18,05,43,5.60
2016,02,18,05,44,5.60
2016,02,18,05,45,5.60
2016,02,18,05,46,5.60
2016,02,18,05,47,5.60
2016,02,18,05,48,5.60
2016,02,18,05,49,5.60
2016,02,18,05,50,5.60
2016,02,18,05,51,5.60
2016,02,18,05,52,5.60
2016,02,18,05,53,5.60
2016,02,18,05,54,5.60
2016,02,18,05,55,5.60
2016,02,18,05,56,5.60
2016,02,18,05,57,5.60
2016,02,18,05,58,5.60
2016,02,18,05,59,5.60
2016,02,18,06,00,5.50
2016,02,18,06,01,5.50
2016,02,18,06,02,5.50
2016,02,18,06,03,5.50
2016,02,18,06,04,5.50
2016,02,18,06,05,5.40
2016,02,18,06,06,5.40
2016,02,18,06,07,5.40
2016,02,18,06,08,5.40
2016,02,18,06,09,5.40
2016,02,18,06,10,5.40
2016,02,18,06,11,5.40
2016,02,18,06,12,5.30
2016,02,18,06,13,5.30
2016,02,18,06,14,5.30
2016,02,18,06,15,5.30
2016,02,18,06,16,5.30
2016,02,18,06,17,5.30
2016,02,18,06,18,5.30
2016,02,18,06,19,5.30
2016,02,18,06,20,5.20
2016,02,18,06,21,5.20
2016,02,18,06,22,5.20
2016,02,18,06,23,5.20
2016,02,18,06,24,5.20
2016,02,18,06,25,5.20
2016,02,18,06,26,5.20
2016,02,18,06,27,5.20
2016,02,18,06,28,5.20
2016,02,18,06,29,5.20
2016,02,18,06,30,5.20
2016,02,18,06,31,5.20
2016,02,18,06,32,5.20
2016,02,18,06,33,5.20
2016,02,18,06,34,5.20
2016,02,18,06,35,5.20
2016,02,18,06,36,5.20
2016,02,18,06,37,5.20
2016,02,18,06,38,5.20
2016,02,18,06,39,5.20
2016,02,18,06,40,5.20
2016,02,18,06,41,5.20
2016,02,18,06,42,5.20
2016,02,18,06,43,5.20
2016,02,18,06,44,5.20
2016,02,18,06,45,5.20
2016,02,18,06,46,5.20
2016,02,18,06,47,5.20
2016,02,18,06,48,5.20
2016,02,18,06,49,5.20
2016,02,18,06,50,5.30
2016,02,18,06,51,5.30
2016,02,18,06,52,5.30
2016,02,18,06,53,5.30
2016,02,18,06,54,5.30
2016,02,18,06,55,5.30
2016,02,18,06,56,5.40
2016,02,18,06,57,5.40
2016,02,18,06,58,5.40
2016,02,18,06,59,5.40
2016,02,18,07,00,5.40
2016,02,18,07,01,5.50
2016,02,18,07,02,5.50
2016,02,18,07,03,5.60
2016,02,18,07,04,5.60
2016,02,18,07,05,5.60
2016,02,18,07,06,5.60
2016,02,18,07,07,5.60
2016,02,18,07,08,5.60
2016,02,18,07,09,5.60
2016,02,18,07,10,5.60
2016,02,18,07,11,5.60
2016,02,18,07,12,5.60
2016,02,18,07,13,5.60
2016,02,18,07,14,5.60
2016,02,18,07,15,5.60
2016,02,18,07,16,5.60
2016,02,18,07,17,5.60
2016,02,18,07,18,5.60
2016,02,18,07,19,5.60
2016,02,18,07,20,5.60
2016,02,18,07,21,5.60
2016,02,18,07,22,5.60
2016,02,18,07,23,5.60
2016,02,18,07,24,5.60
2016,02,18,07,25,5.60
2016,02,18,07,26,5.60
2016,02,18,07,27,5.60
2016,02,18,07,28,5.60
2016,02,18,07,29,5.60
2016,02,18,07,30,5.60
2016,02,18,07,31,5.60
2016,02,18,07,32,5.60
2016,02,18,07,33,5.60
2016,02,18,07,34,5.60
2016,02,18,07,35,5.60
2016,02,18,07,36,5.60
2016,02,18,07,37,5.60
2016,02,18,07,38,5.60
2016,02,18,07,39,5.60
2016,02,18,07,40,5.60
2016,02,18,07,41,5.60
2016,02,18,07,42,5.70
2016,02,18,07,43,5.70
2016,02,18,07,44,5.70
2016,02,18,07,45,5.70
2016,02,18,07,46,5.70
2016,02,18,07,47,5.80
2016,02,18,07,48,5.80
2016,02,18,07,49,5.80
2016,02,18,07,50,5.80
2016,02,18,07,51,5.80
2016,02,18,07,52,5.80
2016,02,18,07,53,5.80
2016,02,18,07,54,5.80
2016,02,18,07,55,5.80
2016,02,18,07,56,5.80
2016,02,18,07,57,5.80
2016,02,18,07,58,5.80
2016,02,18,07,59,5.80
2016,02,18,08,00,5.80
2016,02,18,08,01,5.90
2016,02,18,08,02,5.90
2016,02,18,08,03,5.90
2016,02,18,08,04,5.90
2016,02,18,08,05,5.90
2016,02,18,08,06,5.90
2016,02,18,08,07,5.90
2016,02,18,08,08,5.90
2016,02,18,08,09,5.90
2016,02,18,08,10,6.00
2016,02,18,08,11,6.00
2016,02,18,08,12,6.00
2016,02,18,08,13,6.00
2016,02,18,08,14,6.00
2016,02,18,08,15,6.00
2016,02,18,08,16,6.10
2016,02,18,08,17,6.10
2016,02,18,08,18,6.10
2016,02,18,08,19,6.10
2016,02,18,08,20,6.10
2016,02,18,08,21,6.10
2016,02,18,08,22,6.10
2016,02,18,08,23,6.10
2016,02,18,08,24,6.20
2016,02,18,08,25,6.20
2016,02,18,08,26,6.20
2016,02,18,08,27,6.20
2016,02,18,08,28,6.20
2016,02,18,08,29,6.20
2016,02,18,08,30,6.20
2016,02,18,08,31,6.20
2016,02,18,08,32,6.20
2016,02,18,08,33,6.20
2016,02,18,08,34,6.20
2016,02,18,08,35,6.20
2016,02,18,08,36,6.30
2016,02,18,08,37,6.30
2016,02,18,08,38,6.30
2016,02,18,08,39,6.30
2016,02,18,08,40,6.30
2016,02,18,08,41,6.30
2016,02,18,08,42,6.30
2016,02,18,08,43,6.30
2016,02,18,08,44,6.30
2016,02,18,08,45,6.30
2016,02,18,08,46,6.30
2016,02,18,08,47,6.30
2016,02,18,08,48,6.30
2016,02,18,08,49,6.30
2016,02,18,08,50,6.30
2016,02,18,08,51,6.30
2016,02,18,08,52,6.30
2016,02,18,08,53,6.30
2016,02,18,08,54,6.30
2016,02,18,08,55,6.30
2016,02,18,08,56,6.30
2016,02,18,08,57,6.40
2016,02,18,08,58,6.40
2016,02,18,08,59,6.40
2016,02,18,09,00,6.40
2016,02,18,09,01,6.40
2016,02,18,09,02,6.40
2016,02,18,09,03,6.40
2016,02,18,09,04,6.40
2016,02,18,09,05,6.50
2016,02,18,09,06,6.50
2016,02,18,09,07,6.50
2016,02,18,09,08,6.60
2016,02,18,09,09,6.60
2016,02,18,09,10,6.60
2016,02,18,09,11,6.60
2016,02,18,09,12,6.70
2016,02,18,09,13,6.70
2016,02,18,09,14,6.70
2016,02,18,09,15,6.70
2016,02,18,09,16,6.70
2016,02,18,09,17,6.80
2016,02,18,09,18,6.80
2016,02,18,09,19,6.80
2016,02,18,09,20,6.80
2016,02,18,09,21,6.80
2016,02,18,09,22,6.90
2016,02,18,09,23,6.90
2016,02,18,09,24,6.90
2016,02,18,09,25,6.90
2016,02,18,09,26,6.90
2016,02,18,09,27,7.00
2016,02,18,09,28,7.00
2016,02,18,09,29,7.00
2016,02,18,09,30,7.10
2016,02,18,09,31,7.10
2016,02,18,09,32,7.10
2016,02,18,09,33,7.10
2016,02,18,09,34,7.20
2016,02,18,09,35,7.20
2016,02,18,09,36,7.20
2016,02,18,09,37,7.20
2016,02,18,09,38,7.30
2016,02,18,09,39,7.30
2016,02,18,09,40,7.30
2016,02,18,09,41,7.30
2016,02,18,09,42,7.30
2016,02,18,09,43,7.40
2016,02,18,09,44,7.40
2016,02,18,09,45,7.40
2016,02,18,09,46,7.40
2016,02,18,09,47,7.40
2016,02,18,09,48,7.40
2016,02,18,09,49,7.40
2016,02,18,09,50,7.50
2016,02,18,09,51,7.50
2016,02,18,09,52,7.50
2016,02,18,09,53,7.50
2016,02,18,09,54,7.50
2016,02,18,09,55,7.50
2016,02,18,09,56,7.50
2016,02,18,09,57,7.50
2016,02,18,09,58,7.40
2016,02,18,09,59,7.40
2016,02,18,10,00,7.40
2016,02,18,10,01,7.50
2016,02,18,10,02,7.50
2016,02,18,10,03,7.50
2016,02,18,10,04,7.60
2016,02,18,10,05,7.60
2016,02,18,10,06,7.60
2016,02,18,10,07,7.60
2016,02,18,10,08,7.60
2016,02,18,10,09,7.60
2016,02,18,10,10,7.60
2016,02,18,10,11,7.60
2016,02,18,10,12,7.60
2016,02,18,10,13,7.70
2016,02,18,10,14,7.70
2016,02,18,10,15,7.70
2016,02,18,10,16,7.70
2016,02,18,10,17,7.70
2016,02,18,10,18,7.80
2016,02,18,10,19,7.80
2016,02,18,10,20,7.80
2016,02,18,10,21,7.80
2016,02,18,10,22,7.80
2016,02,18,10,23,7.80
2016,02,18,10,24,7.80
2016,02,18,10,25,7.80
2016,02,18,10,26,7.80
2016,02,18,10,27,7.80
2016,02,18,10,28,7.80
2016,02,18,10,29,7.80
2016,02,18,10,30,7.80
2016,02,18,10,31,7.90
2016,02,18,10,32,7.90
2016,02,18,10,33,8.00
2016,02,18,10,34,8.00
2016,02,18,10,35,8.00
2016,02,18,10,36,8.00
2016,02,18,10,37,8.00
2016,02,18,10,38,8.00
2016,02,18,10,39,8.10
2016,02,18,10,40,8.10
2016,02,18,10,41,8.10
2016,02,18,10,42,8.20
2016,02,18,10,43,8.20
2016,02,18,10,44,8.20
2016,02,18,10,45,8.30
2016,02,18,10,46,8.30
2016,02,18,10,47,8.30
2016,02,18,10,48,8.30
2016,02,18,10,49,8.40
2016,02,18,10,50,8.40
2016,02,18,10,51,8.40
2016,02,18,10,52,8.40
2016,02,18,10,53,8.50
2016,02,18,10,54,8.50
2016,02,18,10,55,8.50
2016,02,18,10,56,8.50
2016,02,18,10,57,8.50
2016,02,18,10,58,8.40
2016,02,18,10,59,8.40
2016,02,18,11,00,8.40
2016,02,18,11,01,8.40
2016,02,18,11,02,8.50
2016,02,18,11,03,8.40
2016,02,18,11,04,8.40
2016,02,18,11,05,8.40
2016,02,18,11,06,8.50
2016,02,18,11,07,8.50
2016,02,18,11,08,8.50
2016,02,18,11,09,8.60
2016,02,18,11,10,8.60
2016,02,18,11,11,8.60
2016,02,18,11,12,8.60
2016,02,18,11,13,8.60
2016,02,18,11,14,8.60
2016,02,18,11,15,8.60
2016,02,18,11,16,8.70
2016,02,18,11,17,8.70
2016,02,18,11,18,8.70
2016,02,18,11,19,8.70
2016,02,18,11,20,8.70
2016,02,18,11,21,8.70
2016,02,18,11,22,8.70
2016,02,18,11,23,8.70
2016,02,18,11,24,8.70
2016,02,18,11,25,8.70
2016,02,18,11,26,8.70
2016,02,18,11,27,8.70
2016,02,18,11,28,8.70
2016,02,18,11,29,8.70
2016,02,18,11,30,8.70
2016,02,18,11,31,8.70
2016,02,18,11,32,8.70
2016,02,18,11,33,8.70
2016,02,18,11,34,8.70
2016,02,18,11,35,8.70
2016,02,18,11,36,8.70
2016,02,18,11,37,8.70
2016,02,18,11,38,8.70
2016,02,18,11,39,8.70
2016,02,18,11,40,8.70
2016,02,18,11,41,8.70
2016,02,18,11,42,8.70
2016,02,18,11,43,8.70
2016,02,18,11,44,8.70
2016,02,18,11,45,8.70
2016,02,18,11,46,8.70
2016,02,18,11,47,8.70
2016,02,18,11,48,8.70
2016,02,18,11,49,8.70
2016,02,18,11,50,8.70
2016,02,18,11,51,8.70
2016,02,18,11,52,8.70
2016,02,18,11,53,8.70
2016,02,18,11,54,8.70
2016,02,18,11,55,8.70
2016,02,18,11,56,8.70
2016,02,18,11,57,8.70
2016,02,18,11,58,8.70
2016,02,18,11,59,8.70
2016,02,18,12,00,8.70
2016,02,18,12,01,8.70
2016,02,18,12,02,8.70
2016,02,18,12,03,8.60
2016,02,18,12,04,8.60
2016,02,18,12,05,8.60
2016,02,18,12,06,8.60
2016,02,18,12,07,8.60
2016,02,18,12,08,8.60
2016,02,18,12,09,8.60
2016,02,18,12,10,8.60
2016,02,18,12,11,8.60
2016,02,18,12,12,8.60
2016,02,18,12,13,8.60
2016,02,18,12,14,8.60
2016,02,18,12,15,8.60
2016,02,18,12,16,8.50
2016,02,18,12,17,8.50
2016,02,18,12,18,8.50
2016,02,18,12,19,8.40
2016,02,18,12,20,8.40
2016,02,18,12,21,8.40
2016,02,18,12,22,8.40
2016,02,18,12,23,8.40
2016,02,18,12,24,8.40
2016,02,18,12,25,8.40
2016,02,18,12,26,8.40
2016,02,18,12,27,8.40
2016,02,18,12,28,8.40
2016,02,18,12,29,8.40
2016,02,18,12,30,8.30
2016,02,18,12,31,8.30
2016,02,18,12,32,8.30
2016,02,18,12,33,8.30
2016,02,18,12,34,8.30
2016,02,18,12,35,8.30
2016,02,18,12,36,8.30
2016,02,18,12,37,8.30
2016,02,18,12,38,8.30
2016,02,18,12,39,8.30
2016,02,18,12,40,8.30
2016,02,18,12,41,8.30
2016,02,18,12,42,8.30
2016,02,18,12,43,8.30
2016,02,18,12,44,8.30
2016,02,18,12,45,8.30
2016,02,18,12,46,8.30
2016,02,18,12,47,8.30
2016,02,18,12,48,8.30
2016,02,18,12,49,8.30
2016,02,18,12,50,8.30
2016,02,18,12,51,8.30
2016,02,18,12,52,8.40
2016,02,18,12,53,8.40
2016,02,18,12,54,8.40
2016,02,18,12,55,8.50
2016,02,18,12,56,8.50
2016,02,18,12,57,8.50
2016,02,18,12,58,8.60
2016,02,18,12,59,8.60
2016,02,18,13,00,8.60
2016,02,18,13,01,8.60
2016,02,18,13,02,8.60
2016,02,18,13,03,8.60
2016,02,18,13,04,8.60
2016,02,18,13,05,8.60
2016,02,18,13,06,8.60
2016,02,18,13,07,8.60
2016,02,18,13,08,8.50
2016,02,18,13,09,8.50
2016,02,18,13,10,8.50
2016,02,18,13,11,8.40
2016,02,18,13,12,8.40
2016,02,18,13,13,8.40
2016,02,18,13,14,8.40
2016,02,18,13,15,8.40
2016,02,18,13,16,8.40
2016,02,18,13,17,8.50
2016,02,18,13,18,8.50
2016,02,18,13,19,8.50
2016,02,18,13,20,8.50
2016,02,18,13,21,8.50
2016,02,18,13,22,8.50
2016,02,18,13,23,8.40
2016,02,18,13,24,8.40
2016,02,18,13,25,8.40
2016,02,18,13,26,8.40
2016,02,18,13,27,8.40
2016,02,18,13,28,8.40
2016,02,18,13,29,8.40
2016,02,18,13,30,8.40
2016,02,18,13,31,8.40
2016,02,18,13,32,8.40
2016,02,18,13,33,8.40
2016,02,18,13,34,8.40
2016,02,18,13,35,8.40
2016,02,18,13,36,8.40
2016,02,18,13,37,8.50
2016,02,18,13,38,8.50
2016,02,18,13,39,8.50
2016,02,18,13,40,8.60
2016,02,18,13,41,8.60
2016,02,18,13,42,8.60
2016,02,18,13,43,8.60
2016,02,18,13,44,8.70
2016,02,18,13,45,8.70
2016,02,18,13,46,8.80
2016,02,18,13,47,8.80
2016,02,18,13,48,8.80
2016,02,18,13,49,8.80
2016,02,18,13,50,8.80
2016,02,18,13,51,8.80
2016,02,18,13,52,8.90
2016,02,18,13,53,8.90
2016,02,18,13,54,9.00
2016,02,18,13,55,9.00
2016,02,18,13,56,9.10
2016,02,18,13,57,9.10
2016,02,18,13,58,9.10
2016,02,18,13,59,9.10
2016,02,18,14,00,9.10
2016,02,18,14,01,9.00
2016,02,18,14,02,9.00
2016,02,18,14,03,8.90
2016,02,18,14,04,8.90
2016,02,18,14,05,8.90
2016,02,18,14,06,8.90
2016,02,18,14,07,8.90
2016,02,18,14,08,8.90
2016,02,18,14,09,8.90
2016,02,18,14,10,8.90
2016,02,18,14,11,8.90
2016,02,18,14,12,8.90
2016,02,18,14,13,8.90
2016,02,18,14,14,8.90
2016,02,18,14,15,9.00
2016,02,18,14,16,9.00
2016,02,18,14,17,9.10
2016,02,18,14,18,9.10
2016,02,18,14,19,9.10
2016,02,18,14,20,9.10
2016,02,18,14,21,9.00
2016,02,18,14,22,9.00
2016,02,18,14,23,9.00
2016,02,18,14,24,8.90
2016,02,18,14,25,9.00
2016,02,18,14,26,9.00
2016,02,18,14,27,9.00
2016,02,18,14,28,9.00
2016,02,18,14,29,9.00
2016,02,18,14,30,9.00
2016,02,18,14,31,9.00
2016,02,18,14,32,9.00
2016,02,18,14,33,9.10
2016,02,18,14,34,9.10
2016,02,18,14,35,9.20
2016,02,18,14,36,9.20
2016,02,18,14,37,9.30
2016,02,18,14,38,9.30
2016,02,18,14,39,9.30
2016,02,18,14,40,9.40
2016,02,18,14,41,9.40
2016,02,18,14,42,9.50
2016,02,18,14,43,9.50
2016,02,18,14,44,9.60
2016,02,18,14,45,9.60
2016,02,18,14,46,9.70
2016,02,18,14,47,9.70
2016,02,18,14,48,9.80
2016,02,18,14,49,9.80
2016,02,18,14,50,9.80
2016,02,18,14,51,9.80
2016,02,18,14,52,9.80
2016,02,18,14,53,9.80
2016,02,18,14,54,9.80
2016,02,18,14,55,9.80
2016,02,18,14,56,9.80
2016,02,18,14,57,9.80
2016,02,18,14,58,9.90
2016,02,18,14,59,9.90
2016,02,18,15,00,9.90
2016,02,18,15,01,9.90
2016,02,18,15,02,9.90
2016,02,18,15,03,9.90
2016,02,18,15,04,9.90
2016,02,18,15,05,9.90
2016,02,18,15,06,9.80
2016,02,18,15,07,9.80
2016,02,18,15,08,9.80
2016,02,18,15,09,9.80
2016,02,18,15,10,9.80
2016,02,18,15,11,9.80
2016,02,18,15,12,9.80
2016,02,18,15,13,9.80
2016,02,18,15,14,9.80
2016,02,18,15,15,9.80
2016,02,18,15,16,9.80
2016,02,18,15,17,9.80
2016,02,18,15,18,9.80
2016,02,18,15,19,9.80
2016,02,18,15,20,9.80
2016,02,18,15,21,9.80
2016,02,18,15,22,9.80
2016,02,18,15,23,9.80
2016,02,18,15,24,9.80
2016,02,18,15,25,9.70
2016,02,18,15,26,9.70
2016,02,18,15,27,9.70
2016,02,18,15,28,9.70
2016,02,18,15,29,9.60
2016,02,18,15,30,9.60
2016,02,18,15,31,9.60
2016,02,18,15,32,9.50
2016,02,18,15,33,9.50
2016,02,18,15,34,9.50
2016,02,18,15,35,9.40
2016,02,18,15,36,9.40
2016,02,18,15,37,9.40
2016,02,18,15,38,9.30
2016,02,18,15,39,9.30
2016,02,18,15,40,9.30
2016,02,18,15,41,9.30
2016,02,18,15,42,9.30
2016,02,18,15,43,9.30
2016,02,18,15,44,9.30
2016,02,18,15,45,9.30
2016,02,18,15,46,9.30
2016,02,18,15,47,9.30
2016,02,18,15,48,9.30
2016,02,18,15,49,9.30
2016,02,18,15,50,9.30
2016,02,18,15,51,9.30
2016,02,18,15,52,9.20
2016,02,18,15,53,9.20
2016,02,18,15,54,9.20
2016,02,18,15,55,9.20
2016,02,18,15,56,9.20
2016,02,18,15,57,9.20
2016,02,18,15,58,9.20
2016,02,18,15,59,9.20
2016,02,18,16,00,9.20
2016,02,18,16,01,9.20
2016,02,18,16,02,9.20
2016,02,18,16,03,9.20
2016,02,18,16,04,9.20
2016,02,18,16,05,9.20
2016,02,18,16,06,9.30
2016,02,18,16,07,9.30
2016,02,18,16,08,9.30
2016,02,18,16,09,9.30
2016,02,18,16,10,9.30
2016,02,18,16,11,9.30
2016,02,18,16,12,9.30
2016,02,18,16,13,9.30
2016,02,18,16,14,9.40
2016,02,18,16,15,9.40
2016,02,18,16,16,9.40
2016,02,18,16,17,9.30
2016,02,18,16,18,9.30
2016,02,18,16,19,9.30
2016,02,18,16,20,9.30
2016,02,18,16,21,9.30
2016,02,18,16,22,9.30
2016,02,18,16,23,9.30
2016,02,18,16,24,9.30
2016,02,18,16,25,9.30
2016,02,18,16,26,9.30
2016,02,18,16,27,9.30
2016,02,18,16,28,9.30
2016,02,18,16,29,9.30
2016,02,18,16,30,9.30
2016,02,18,16,31,9.30
2016,02,18,16,32,9.30
2016,02,18,16,33,9.30
2016,02,18,16,34,9.30
2016,02,18,16,35,9.30
2016,02,18,16,36,9.30
2016,02,18,16,37,9.20
2016,02,18,16,38,9.20
2016,02,18,16,39,9.20
2016,02,18,16,40,9.20
2016,02,18,16,41,9.10
2016,02,18,16,42,9.10
2016,02,18,16,43,9.10
2016,02,18,16,44,9.10
2016,02,18,16,45,9.00
2016,02,18,16,46,9.00
2016,02,18,16,47,8.90
2016,02,18,16,48,8.90
2016,02,18,16,49,8.90
2016,02,18,16,50,8.90
2016,02,18,16,51,8.80
2016,02,18,16,52,8.80
2016,02,18,16,53,8.80
2016,02,18,16,54,8.80
2016,02,18,16,55,8.80
2016,02,18,16,56,8.70
2016,02,18,16,57,8.70
2016,02,18,16,58,8.70
2016,02,18,16,59,8.70
2016,02,18,17,00,8.70
2016,02,18,17,01,8.60
2016,02,18,17,02,8.60
2016,02,18,17,03,8.60
2016,02,18,17,04,8.60
2016,02,18,17,05,8.60
2016,02,18,17,06,8.60
2016,02,18,17,07,8.50
2016,02,18,17,08,8.50
2016,02,18,17,09,8.50
2016,02,18,17,10,8.40
2016,02,18,17,11,8.40
2016,02,18,17,12,8.40
2016,02,18,17,13,8.40
2016,02,18,17,14,8.40
2016,02,18,17,15,8.40
2016,02,18,17,16,8.40
2016,02,18,17,17,8.30
2016,02,18,17,18,8.30
2016,02,18,17,19,8.30
2016,02,18,17,20,8.30
2016,02,18,17,21,8.30
2016,02,18,17,22,8.30
2016,02,18,17,23,8.30
2016,02,18,17,24,8.30
2016,02,18,17,25,8.30
2016,02,18,17,26,8.30
2016,02,18,17,27,8.30
2016,02,18,17,28,8.20
2016,02,18,17,29,8.20
2016,02,18,17,30,8.20
2016,02,18,17,31,8.20
2016,02,18,17,32,8.20
2016,02,18,17,33,8.20
2016,02,18,17,34,8.20
2016,02,18,17,35,8.20
2016,02,18,17,36,8.20
2016,02,18,17,37,8.10
2016,02,18,17,38,8.10
2016,02,18,17,39,8.10
2016,02,18,17,40,8.10
2016,02,18,17,41,8.10
2016,02,18,17,42,8.10
2016,02,18,17,43,8.10
2016,02,18,17,44,8.10
2016,02,18,17,45,8.10
2016,02,18,17,46,8.10
2016,02,18,17,47,8.10
2016,02,18,17,48,8.00
2016,02,18,17,49,8.00
2016,02,18,17,50,8.00
2016,02,18,17,51,8.00
2016,02,18,17,52,8.00
2016,02,18,17,53,8.00
2016,02,18,17,54,7.90
2016,02,18,17,55,7.90
2016,02,18,17,56,7.90
2016,02,18,17,57,7.90
2016,02,18,17,58,7.80
2016,02,18,17,59,7.80
2016,02,18,18,00,7.80
2016,02,18,18,01,7.80
2016,02,18,18,02,7.80
2016,02,18,18,03,7.80
2016,02,18,18,04,7.80
2016,02,18,18,05,7.70
2016,02,18,18,06,7.70